Location: *
(40.7873°S, 98.7174°E)
Time: 22:56:56
(UTC+00:00)

Hubble Space Telescope - Pass Details

Date: 17 August 2022
Orbit: 532 x 535 km, 28.5° (Epoch: 23 September)

Event Time Altitude Azimuth Distance (km) Brightness Sun altitude
Exits shadow 23:15:58 - 309° (NW) 2,121 3.4 -11.0°
Reaches altitude 10° 23:17:45 10° 329° (NNW) 1,784 3.2 -10.7°
Maximum altitude 23:19:04 11° 348° (NNW) 1,700 3.3 -10.4°
Drops below altitude 10° 23:20:22 10° 6° (N) 1,781 3.6 -10.2°
Sets 23:24:07 0° 41° (NE) 2,667 5.2 -9.5°
